Location: Praha
(50.0830°N, 14.4670°E)
Time: 06:01:19
(UTC+02:00)

ISS - Pass Details

Date: 02 April 2020
Orbit: 417 x 423 km, 51.6° (Epoch: 29 March)

Event Time Altitude Azimuth Distance (km) Brightness Sun altitude
Rises 20:10:32 0° 287° (WNW) 2,362 3.0 -6.2°
Reaches altitude 10° 20:12:39 10° 284° (WNW) 1,497 0.9 -6.5°
Maximum altitude 20:15:58 64° 203° (SSW) 467 -3.5 -7.0°
Drops below altitude 10° 20:19:17 10° 121° (ESE) 1,492 -1.6 -7.5°
Enters shadow 20:19:22 10° 121° (ESE) 1,527 -1.5 -7.5°
